Location: Bussy-Saint-Georges
(48.8410°N, 2.7017°E)
Time: 16:22:37
(UTC+00:00)

Cosmos 2322 Rocket - Pass Details

Date: 18 October 2021
Orbit: 832 x 851 km, 71.0° (Epoch: 28 November)

Event Time Altitude Azimuth Distance (km) Brightness Sun altitude
Rises 19:33:40 0° 203° (SSW) 3,364 5.4 -26.9°
Reaches altitude 10° 19:36:05 10° 202° (SSW) 2,434 4.6 -27.3°
Enters shadow 19:39:44 43° 197° (SSW) 1,159 2.8 -27.8°
